TimeCST,TemperatureF,Dew PointF,Humidity,Sea Level PressureIn,VisibilityMPH,Wind Direction,Wind SpeedMPH,Gust SpeedMPH,PrecipitationIn,Events,Conditions,WindDirDegrees,DateUTC
12:29 AM,28.9,24.1,82,29.70,10.0,South,15.0,24.2,0.00,Rain,Light Freezing Rain,180,2014-02-17 06:29:00
12:40 AM,28.9,25.0,85,29.70,10.0,South,17.3,-,0.00,,Overcast,180,2014-02-17 06:40:00
12:52 AM,30.2,26.6,86,29.71,10.0,South,15.0,-,0.00,,Overcast,190,2014-02-17 06:52:00
12:54 AM,30.2,26.6,86,29.71,9.0,South,12.7,24.2,0.00,Rain,Light Freezing Rain,190,2014-02-17 06:54:00
12:56 AM,30.0,26.1,85,29.77,9.0,SSW,15.0,-,0.00,Rain,Light Freezing Rain,200,2014-02-17 06:56:00
1:22 AM,30.9,28.0,89,29.70,5.0,South,18.4,26.5,0.04,Rain,Light Freezing Rain,190,2014-02-17 07:22:00
1:33 AM,30.9,28.9,92,29.69,5.0,SSW,19.6,28.8,0.04,Rain,Light Freezing Rain,200,2014-02-17 07:33:00
1:40 AM,30.9,28.0,89,29.69,5.0,SSW,20.7,29.9,0.05,Snow,Light Snow,200,2014-02-17 07:40:00
1:56 AM,30.9,28.0,89,29.74,2.0,South,25.3,33.4,0.06,Snow,Light Snow,190,2014-02-17 07:56:00
2:03 AM,30.0,28.0,92,29.68,1.5,South,20.7,33.4,0.01,Snow,Light Snow,190,2014-02-17 08:03:00
2:12 AM,30.0,28.0,92,29.68,1.5,South,21.9,29.9,0.01,Snow,Light Snow,190,2014-02-17 08:12:00
2:24 AM,30.0,28.9,96,29.68,0.8,South,21.9,-,0.03,Snow,Light Snow,190,2014-02-17 08:24:00
2:36 AM,30.0,28.9,96,29.68,1.0,SSW,18.4,-,0.05,Snow,Light Snow,200,2014-02-17 08:36:00
2:43 AM,30.0,28.9,96,29.68,0.8,SSW,21.9,26.5,0.06,Snow,Light Snow,200,2014-02-17 08:43:00
2:56 AM,30.0,28.9,96,29.73,1.0,SSW,16.1,25.3,0.08,Snow,Light Snow,200,2014-02-17 08:56:00
3:06 AM,30.0,28.9,96,29.68,0.8,SSW,13.8,-,0.01,Snow,Light Snow,210,2014-02-17 09:06:00
3:13 AM,30.0,30.0,100,29.67,1.5,SW,13.8,25.3,0.01,Snow,Light Snow,220,2014-02-17 09:13:00
3:22 AM,30.9,30.0,96,29.67,3.0,WSW,11.5,26.5,0.01,Snow,Light Snow,250,2014-02-17 09:22:00
3:42 AM,30.0,27.0,88,29.67,6.0,West,12.7,24.2,0.01,Snow,Light Snow,270,2014-02-17 09:42:00
3:56 AM,30.0,27.0,88,29.72,9.0,West,11.5,-,0.01,,Overcast,270,2014-02-17 09:56:00
4:14 AM,28.9,25.0,85,29.66,10.0,West,8.1,-,N/A,,Mostly Cloudy,260,2014-02-17 10:14:00
4:56 AM,28.9,25.0,85,29.77,9.0,West,21.9,34.5,N/A,,Overcast,280,2014-02-17 10:56:00
5:12 AM,27.0,23.0,85,29.72,6.0,WNW,21.9,34.5,N/A,Snow,Blowing Snow,290,2014-02-17 11:12:00
5:22 AM,27.0,23.0,85,29.73,6.0,WNW,16.1,24.2,N/A,Snow,Blowing Snow,290,2014-02-17 11:22:00
5:56 AM,28.0,24.1,85,29.78,10.0,WNW,10.4,-,N/A,,Overcast,300,2014-02-17 11:56:00
6:56 AM,28.0,24.1,85,29.78,10.0,West,10.4,-,N/A,,Overcast,270,2014-02-17 12:56:00
7:56 AM,27.0,24.1,89,29.81,10.0,West,9.2,-,N/A,,Scattered Clouds,270,2014-02-17 13:56:00
8:56 AM,30.0,26.1,85,29.82,10.0,West,12.7,-,N/A,,Partly Cloudy,280,2014-02-17 14:56:00
9:56 AM,34.0,27.0,75,29.83,10.0,West,16.1,25.3,N/A,,Partly Cloudy,280,2014-02-17 15:56:00
10:56 AM,36.0,26.1,67,29.85,10.0,West,15.0,24.2,N/A,,Partly Cloudy,280,2014-02-17 16:56:00
11:56 AM,37.9,27.0,65,29.85,10.0,WNW,15.0,25.3,N/A,,Partly Cloudy,290,2014-02-17 17:56:00
12:56 PM,39.9,25.0,55,29.84,10.0,WNW,17.3,27.6,N/A,,Clear,290,2014-02-17 18:56:00
1:56 PM,39.9,26.1,58,29.83,10.0,WNW,18.4,25.3,N/A,,Partly Cloudy,290,2014-02-17 19:56:00
2:56 PM,39.9,26.1,58,29.84,10.0,WNW,16.1,25.3,N/A,,Partly Cloudy,290,2014-02-17 20:56:00
3:56 PM,41.0,26.1,55,29.84,10.0,West,10.4,-,N/A,,Partly Cloudy,280,2014-02-17 21:56:00
4:56 PM,39.9,26.1,58,29.85,10.0,WNW,5.8,-,N/A,,Partly Cloudy,300,2014-02-17 22:56:00
5:56 PM,37.9,27.0,65,29.85,10.0,Calm,Calm,-,N/A,,Partly Cloudy,0,2014-02-17 23:56:00
6:56 PM,35.1,27.0,72,29.84,10.0,SSW,4.6,-,N/A,,Partly Cloudy,200,2014-02-18 00:56:00
7:56 PM,35.1,27.0,72,29.82,10.0,South,6.9,-,N/A,,Clear,190,2014-02-18 01:56:00
8:56 PM,33.1,25.0,72,29.80,10.0,South,6.9,-,N/A,,Scattered Clouds,190,2014-02-18 02:56:00
9:56 PM,34.0,24.1,67,29.79,10.0,South,3.5,-,N/A,,Overcast,180,2014-02-18 03:56:00
10:56 PM,35.1,23.0,61,29.76,10.0,South,10.4,-,N/A,,Mostly Cloudy,190,2014-02-18 04:56:00
11:56 PM,37.0,21.9,54,29.71,10.0,South,12.7,-,N/A,,Partly Cloudy,170,2014-02-18 05:56:00